Torna al catalogo

COSMOS 252 DEB

AttivoLEO
NORAD 15519·DEBRIS·🇷🇺 Russia

Lanciato Nov 1, 1968 da Baikonur Cosmodrome

Loading…

Prossimi Passaggi (prossime 24 ore)

TLE

AggiornatoSource: Space-Track

Epoca: Sep 14, 2026, 10:38 UTC

1 15519U 68097EF  26257.44307883  .00000220  00000-0  14278-3 0  9999
2 15519  62.3769  51.4934 0869280 304.9511  47.2782 13.07464500831246

Traccia COSMOS 252 DEB in tempo reale con AllMySat

Download on the App Store